#timestamp,LO_Frequency,Hit,StdDev 
1652648415.6,286046999.7,N
1652648435.4,286047004.1,N
1652648455.2,286047002.1,N
1652648475.1,286046998.5,N
1652648476.0,286046998.5,N
1652648495.8,286046999.3,N
1652648515.6,286046995.5,N
1652648535.5,286046995.7,N
1652648555.3,286046994.9,N
1652648575.1,286046996.5,N
1652648595.9,286046999.5,N
1652648615.7,286046997.6,N
1652648635.5,286047000.8,N
1652648655.4,286047006.3,N
1652648675.2,286047011.4,Y
1652648695.0,286047012.5,P
1652648695.9,286047012.5,N
1652648715.8,286047017.1,N
1652648735.6,286047014.5,N
1652648755.4,286047017.2,N
1652648775.3,286047012.7,N
1652648795.1,286047011.1,N
1652648815.8,286047015.0,N
1652648835.7,286047019.6,Y
1652648855.5,286047008.5,P
1652648875.3,286047012.2,P
1652648895.2,286047016.7,P
1652648915.0,286047019.0,Y
1652648915.9,286047019.0,P
1652648935.7,286047012.6,P
1652648955.6,286047018.5,P
1652648975.4,286047021.7,Y
1652648995.2,286047010.2,P
1652649015.1,286047013.2,P
1652649016.0,286047013.2,P
1652649035.8,286047018.6,Y
1652649055.7,286047012.0,P
1652649075.5,286047013.2,P
1652649095.3,286047020.5,P
1652649115.2,286047032.8,Y
1652649135.9,286047017.8,P
1652649155.7,286047021.5,P
1652649175.6,286047020.5,P
1652649195.4,286047027.7,Y
1652649215.2,286047012.9,P
1652649235.1,286047023.6,P
1652649236.0,286047023.6,P
1652649255.8,286047024.5,Y
1652649275.6,286047006.4,P
1652649295.5,286047014.2,N
1652649315.3,286047017.0,P
1652649335.1,286047019.0,Y
1652649355.9,286047004.6,P
1652649375.7,286047008.1,N
1652649395.5,286047013.5,P
1652649415.4,286047015.9,Y
1652649435.2,286047010.3,P
1652649455.0,286047014.7,P
1652649455.9,286047014.7,P
1652649475.8,286047015.8,Y
1652649495.6,286047006.0,P
1652649515.4,286047008.6,N
1652649535.3,286047010.9,P
1652649555.1,286047015.8,Y
1652649575.8,286047013.3,P
1652649595.7,286047019.0,P
1652649615.5,286047024.0,P
1652649635.3,286047022.6,Y
1652649655.2,286047006.4,P
1652649675.9,286047007.8,N
1652649695.7,286047011.1,N
1652649715.6,286047016.4,Y
1652649735.4,286047004.0,P
1652649755.2,286047004.1,N
1652649775.1,286047011.8,P
1652649776.0,286047011.8,Y
1652649795.8,286047008.3,P
1652649815.6,286047013.9,P
1652649835.5,286047014.0,P
1652649855.3,286047010.9,Y
1652649875.1,286047007.2,P
1652649895.9,286047010.3,P
1652649915.7,286047007.4,P
1652649935.5,286047005.2,Y
1652649955.4,286046995.0,P
1652649975.2,286046996.8,N
1652649995.0,286046997.4,N
1652649995.9,286046997.4,N
1652650015.8,286046997.8,N
1652650035.6,286046995.0,N
1652650055.4,286046996.9,N
1652650075.3,286046997.8,N
1652650095.1,286046999.1,N
1652650115.8,286047000.9,N
1652650135.7,286047003.8,N
1652650155.5,286047004.8,N
1652650175.3,286047006.2,N
1652650195.2,286047011.5,N
1652650215.9,286047013.1,N
1652650235.7,286047017.6,Y
1652650255.6,286047018.2,P
1652650275.4,286047019.2,N
1652650295.2,286047024.6,P
1652650315.1,286047029.9,Y
1652650316.0,286047029.9,P
1652650335.8,286047021.6,P
1652650355.6,286047019.8,P
1652650375.5,286047024.7,Y
1652650395.3,286047007.7,P
1652650415.1,286047010.0,N
1652650435.9,286047008.7,N
1652650455.7,286047005.3,N
1652650475.5,286047005.5,N
1652650495.4,286047002.2,N
1652650515.2,286047000.2,N
1652650535.0,286047002.4,N
1652650535.9,286047002.4,N
1652650555.8,286047005.9,N
1652650575.6,286047004.4,N
1652650595.4,286047005.1,N
1652650615.3,286047007.4,N
1652650635.1,286047007.4,N
1652650655.8,286047005.4,N
1652650675.7,286047002.0,N
1652650695.5,286047004.8,N
1652650715.3,286047008.4,N
1652650735.2,286047012.5,N
1652650755.9,286047018.2,Y
1652650775.7,286047014.6,P
1652650795.6,286047009.7,N
1652650815.4,286047008.1,N
1652650835.2,286047014.7,Y
1652650855.1,286047009.5,P
1652650856.0,286047009.5,P
1652650875.8,286047011.7,P
1652650895.6,286047016.7,Y
1652650915.5,286047008.9,P
1652650935.3,286047007.9,P
1652650955.1,286047007.5,P
1652650975.9,286047008.1,Y
1652650995.7,286047004.2,P
1652651015.5,286047004.2,N
1652651035.4,286047005.0,N
1652651055.2,286047006.2,Y
1652651075.1,286046994.9,P
1652651076.0,286046994.9,N
1652651095.8,286046996.9,N
1652651115.6,286047000.7,N
1652651135.5,286047003.7,N
1652651155.3,286047007.1,N
1652651175.1,286046998.3,N
1652651195.9,286046993.8,N
1652651215.7,286046998.4,N
1652651235.5,286047001.2,N
1652651255.4,286047003.2,N
1652651275.2,286047003.5,N
1652651295.0,286047004.9,N
1652651295.9,286047004.9,N
1652651315.8,286047008.3,N
1652651335.6,286047008.1,N
1652651355.4,286047008.2,N
1652651375.2,286047005.7,N
1652651395.1,286047002.6,N
1652651396.0,286047002.6,N
1652651415.8,286047003.5,N
1652651435.6,286047005.7,N
1652651455.5,286047007.4,N
1652651475.3,286047009.5,N
1652651495.1,286047011.3,N
1652651515.9,286047010.4,N
1652651535.7,286047008.7,N
1652651555.5,286047007.3,N
1652651575.4,286047009.7,N
1652651595.2,286047008.0,N
1652651615.0,286047009.8,N
1652651615.9,286047009.8,N
1652651635.8,286047010.3,N
1652651655.6,286047012.2,N
1652651675.4,286047010.3,N
1652651695.3,286047007.4,N
1652651715.1,286047005.1,N
1652651735.8,286047004.4,N
1652651755.7,286046998.7,N
1652651775.5,286046998.8,N
1652651795.3,286046996.6,N
1652651815.2,286046997.8,N
1652651835.0,286047003.7,N
1652651835.9,286047003.7,N
1652651855.7,286047007.0,N
1652651875.6,286047005.7,N
1652651895.4,286047008.3,N
1652651915.2,286047011.9,N
1652651935.1,286047016.7,Y
1652651936.0,286047016.7,P
1652651955.8,286047010.8,N
1652651975.6,286047012.0,N
1652651995.5,286047016.3,Y
